N116B KDWH-KBRO

Flight info

Callsign N116B
Flight time 0h 50m
Altitude 43000
Route KARRR7 NGP
Aircraft C680/M-SDFGHRWY/SB1

Departure

Time 2026-04-29 09:31
Airport David Wayne Hooks Memorial Airport (KDWH)

Arrival

Time 2026-04-29 10:21
Airport Brownsville South Padre Island International Airport (KBRO)
Time Latitude Longitude Altitude Speed Heading
2026-04-29 08:43 30.07414 -95.55621 154 ft 0 kts 145°
2026-04-29 09:29 30.07401 -95.55602 153 ft 7 kts 107°
2026-04-29 09:29 30.07393 -95.55566 152 ft 0 kts 107°
2026-04-29 09:29 30.07388 -95.55544 151 ft 10 kts 107°
2026-04-29 09:30 30.07323 -95.55481 148 ft 17 kts 173°
2026-04-29 09:30 30.07269 -95.55474 147 ft 1 kts 172°
2026-04-29 09:30 30.07114 -95.55451 148 ft 66 kts 173°
2026-04-29 09:30 30.06317 -95.55331 229 ft 154 kts 173°
2026-04-29 09:31 30.05195 -95.55152 1329 ft 168 kts 172°
2026-04-29 09:31 30.03890 -95.54854 2239 ft 218 kts 172°
2026-04-29 09:31 30.02291 -95.54478 3439 ft 239 kts 172°
2026-04-29 09:31 30.00725 -95.54144 4253 ft 221 kts 173°
2026-04-29 09:32 29.99280 -95.53513 4281 ft 231 kts 159°
2026-04-29 09:32 29.97839 -95.52639 4285 ft 237 kts 157°
2026-04-29 09:32 29.96384 -95.51717 4282 ft 241 kts 157°
2026-04-29 09:32 29.94884 -95.50771 4316 ft 261 kts 156°
2026-04-29 09:33 29.93272 -95.49796 5738 ft 258 kts 160°
2026-04-29 09:33 29.91535 -95.49297 7108 ft 262 kts 177°
2026-04-29 09:33 29.89679 -95.49155 8313 ft 274 kts 179°
2026-04-29 09:33 29.87744 -95.48878 9532 ft 287 kts 172°
2026-04-29 09:34 29.85740 -95.48376 10542 ft 306 kts 169°
2026-04-29 09:34 29.83585 -95.47813 11363 ft 326 kts 170°
2026-04-29 09:34 29.81353 -95.47316 12656 ft 329 kts 173°
2026-04-29 09:34 29.79075 -95.46832 13844 ft 337 kts 173°
2026-04-29 09:35 29.76758 -95.46311 14956 ft 341 kts 172°
2026-04-29 09:35 29.74413 -95.45766 16070 ft 346 kts 173°
2026-04-29 09:35 29.72040 -95.45228 17160 ft 350 kts 173°
2026-04-29 09:35 29.69628 -95.44691 18186 ft 356 kts 173°
2026-04-29 09:36 29.67180 -95.44141 19041 ft 362 kts 173°
2026-04-29 09:36 29.64689 -95.43576 19845 ft 368 kts 173°
2026-04-29 09:36 29.62187 -95.43012 20617 ft 375 kts 173°
2026-04-29 09:36 29.59610 -95.42433 21392 ft 381 kts 174°
2026-04-29 09:37 29.56986 -95.41843 22154 ft 387 kts 174°
2026-04-29 09:37 29.54323 -95.41243 22891 ft 393 kts 174°
2026-04-29 09:37 29.51619 -95.40635 23614 ft 399 kts 174°
2026-04-29 09:37 29.48874 -95.40018 24201 ft 404 kts 174°
2026-04-29 09:38 29.46095 -95.39394 24779 ft 410 kts 175°
2026-04-29 09:38 29.43271 -95.38937 25294 ft 409 kts 184°
2026-04-29 09:38 29.40455 -95.39095 25872 ft 403 kts 194°
2026-04-29 09:38 29.37745 -95.39825 26402 ft 399 kts 205°
2026-04-29 09:39 29.35221 -95.41093 26930 ft 394 kts 215°
2026-04-29 09:39 29.32966 -95.42833 27444 ft 389 kts 225°
2026-04-29 09:39 29.30916 -95.44849 27932 ft 392 kts 225°
2026-04-29 09:39 29.28567 -95.46537 28420 ft 405 kts 214°
2026-04-29 09:40 29.25914 -95.47760 28881 ft 416 kts 207°
2026-04-29 09:40 29.23159 -95.48826 29334 ft 419 kts 207°
2026-04-29 09:40 29.20388 -95.49907 29776 ft 422 kts 207°
2026-04-29 09:40 29.17598 -95.51010 30176 ft 425 kts 207°
2026-04-29 09:41 29.14790 -95.52116 30538 ft 428 kts 207°
2026-04-29 09:41 29.11961 -95.53221 30827 ft 432 kts 206°
2026-04-29 09:41 29.09142 -95.54320 31119 ft 435 kts 206°
2026-04-29 09:41 29.06266 -95.55446 31441 ft 438 kts 206°
2026-04-29 09:42 29.03373 -95.56580 31742 ft 441 kts 206°
2026-04-29 09:42 29.00467 -95.57715 32046 ft 443 kts 207°
2026-04-29 09:42 28.97535 -95.58859 32332 ft 446 kts 207°
2026-04-29 09:42 28.94631 -95.60095 32577 ft 443 kts 212°
2026-04-29 09:43 28.91928 -95.61727 32849 ft 437 kts 219°
2026-04-29 09:43 28.89467 -95.63714 33169 ft 429 kts 227°
2026-04-29 09:43 28.87292 -95.65988 33565 ft 421 kts 234°
2026-04-29 09:43 28.85405 -95.68497 33946 ft 414 kts 239°
2026-04-29 09:44 28.83601 -95.71057 34275 ft 414 kts 239°
2026-04-29 09:44 28.81783 -95.73597 34615 ft 413 kts 239°
2026-04-29 09:44 28.79967 -95.76128 34948 ft 412 kts 239°
2026-04-29 09:44 28.78162 -95.78662 35274 ft 411 kts 239°
2026-04-29 09:45 28.76366 -95.81190 35599 ft 410 kts 239°
2026-04-29 09:45 28.74565 -95.83711 35915 ft 409 kts 239°
2026-04-29 09:45 28.72767 -95.86222 36223 ft 409 kts 239°
2026-04-29 09:45 28.70999 -95.88694 36520 ft 408 kts 240°
2026-04-29 09:46 28.69209 -95.91201 36824 ft 407 kts 240°
2026-04-29 09:46 28.67421 -95.93698 37127 ft 406 kts 240°
2026-04-29 09:46 28.65634 -95.96191 37420 ft 406 kts 240°
2026-04-29 09:46 28.63853 -95.98677 37709 ft 405 kts 240°
2026-04-29 09:47 28.62073 -96.01160 38009 ft 404 kts 240°
2026-04-29 09:47 28.60295 -96.03638 38288 ft 404 kts 240°
2026-04-29 09:47 28.58521 -96.06109 38563 ft 403 kts 240°
2026-04-29 09:47 28.56749 -96.08576 38794 ft 402 kts 240°
2026-04-29 09:48 28.54980 -96.11036 39064 ft 400 kts 240°
2026-04-29 09:48 28.53220 -96.13483 39306 ft 399 kts 240°
2026-04-29 09:48 28.51463 -96.15928 39460 ft 400 kts 239°
2026-04-29 09:48 28.49699 -96.18381 39634 ft 401 kts 239°
2026-04-29 09:49 28.47932 -96.20830 39850 ft 400 kts 239°
2026-04-29 09:49 28.46169 -96.23273 40075 ft 400 kts 239°
2026-04-29 09:49 28.44407 -96.25717 40293 ft 399 kts 239°
2026-04-29 09:49 28.42651 -96.28152 40509 ft 399 kts 239°
2026-04-29 09:50 28.40891 -96.30588 40731 ft 398 kts 239°
2026-04-29 09:50 28.39161 -96.32982 40949 ft 398 kts 239°
2026-04-29 09:50 28.37407 -96.35410 41163 ft 397 kts 239°
2026-04-29 09:50 28.35656 -96.37830 41388 ft 397 kts 238°
2026-04-29 09:51 28.33907 -96.40247 41609 ft 396 kts 238°
2026-04-29 09:51 28.32158 -96.42662 41823 ft 396 kts 238°
2026-04-29 09:51 28.30412 -96.45072 42036 ft 395 kts 238°
2026-04-29 09:51 28.28668 -96.47477 42262 ft 394 kts 238°
2026-04-29 09:52 28.26929 -96.49874 42533 ft 393 kts 238°
2026-04-29 09:52 28.25195 -96.52262 42749 ft 392 kts 238°
2026-04-29 09:52 28.23463 -96.54650 42906 ft 393 kts 238°
2026-04-29 09:52 28.21715 -96.57058 42903 ft 398 kts 238°
2026-04-29 09:53 28.18160 -96.61945 42909 ft 405 kts 237°
2026-04-29 09:53 28.14538 -96.66920 42915 ft 413 kts 237°
2026-04-29 09:54 28.10853 -96.71974 42915 ft 419 kts 237°
2026-04-29 09:54 28.07140 -96.77059 42916 ft 419 kts 237°
2026-04-29 09:55 28.03429 -96.82139 42918 ft 418 kts 237°
2026-04-29 09:55 27.99726 -96.87198 42918 ft 414 kts 237°
2026-04-29 09:56 27.96102 -96.92148 42914 ft 413 kts 237°
2026-04-29 09:56 27.92397 -96.97206 42287 ft 421 kts 237°
2026-04-29 09:57 27.90540 -96.99724 41749 ft 414 kts 237°
2026-04-29 09:57 27.88713 -97.02206 41209 ft 409 kts 237°
2026-04-29 09:57 27.86898 -97.04689 40681 ft 411 kts 238°
2026-04-29 09:57 27.85068 -97.07187 40131 ft 414 kts 238°
2026-04-29 09:58 27.83216 -97.09699 39580 ft 417 kts 238°
2026-04-29 09:58 27.81354 -97.12221 39024 ft 418 kts 238°
2026-04-29 09:58 27.79493 -97.14749 38446 ft 419 kts 238°
2026-04-29 09:58 27.77630 -97.17281 37880 ft 420 kts 238°
2026-04-29 09:59 27.75760 -97.19818 37299 ft 421 kts 238°
2026-04-29 09:59 27.73770 -97.22272 36748 ft 428 kts 232°
2026-04-29 09:59 27.71486 -97.24482 36180 ft 438 kts 225°
2026-04-29 09:59 27.68918 -97.26411 35595 ft 449 kts 218°
2026-04-29 10:00 27.66095 -97.28003 35005 ft 459 kts 211°
2026-04-29 10:00 27.63087 -97.29194 34403 ft 470 kts 204°
2026-04-29 10:00 27.59859 -97.29965 33766 ft 480 kts 195°
2026-04-29 10:00 27.56508 -97.30281 33108 ft 485 kts 189°
2026-04-29 10:01 27.53136 -97.30474 32466 ft 484 kts 189°
2026-04-29 10:01 27.49777 -97.30691 31819 ft 483 kts 189°
2026-04-29 10:01 27.46416 -97.30928 31181 ft 486 kts 189°
2026-04-29 10:01 27.43039 -97.31153 30530 ft 485 kts 189°
2026-04-29 10:02 27.39662 -97.31361 29878 ft 487 kts 188°
2026-04-29 10:02 27.36291 -97.31574 29207 ft 481 kts 188°
2026-04-29 10:02 27.32977 -97.31792 28581 ft 475 kts 188°
2026-04-29 10:02 27.29681 -97.32014 27958 ft 473 kts 188°
2026-04-29 10:03 27.26426 -97.32221 27339 ft 465 kts 188°
2026-04-29 10:03 27.23189 -97.32428 26727 ft 466 kts 188°
2026-04-29 10:03 27.19982 -97.32636 26119 ft 456 kts 187°
2026-04-29 10:03 27.16822 -97.32842 25526 ft 456 kts 187°
2026-04-29 10:04 27.13666 -97.33049 24931 ft 450 kts 187°
2026-04-29 10:04 27.10568 -97.33246 24347 ft 445 kts 187°
2026-04-29 10:04 27.07516 -97.33444 23769 ft 443 kts 186°
2026-04-29 10:04 27.04469 -97.33641 23152 ft 435 kts 186°
2026-04-29 10:05 27.01447 -97.33836 22566 ft 435 kts 186°
2026-04-29 10:05 26.98447 -97.34030 21997 ft 428 kts 186°
2026-04-29 10:05 26.95483 -97.34219 21434 ft 427 kts 187°
2026-04-29 10:05 26.92525 -97.34412 20873 ft 422 kts 187°
2026-04-29 10:06 26.89612 -97.34599 20320 ft 419 kts 186°
2026-04-29 10:06 26.86703 -97.34787 19768 ft 417 kts 186°
2026-04-29 10:06 26.83837 -97.34970 19226 ft 410 kts 186°
2026-04-29 10:06 26.80982 -97.35155 18685 ft 411 kts 186°
2026-04-29 10:07 26.78159 -97.35336 18139 ft 403 kts 186°
2026-04-29 10:07 26.75352 -97.35516 17577 ft 404 kts 186°
2026-04-29 10:07 26.72565 -97.35696 17047 ft 398 kts 186°
2026-04-29 10:07 26.69803 -97.35873 16524 ft 399 kts 186°
2026-04-29 10:08 26.67044 -97.36050 15997 ft 393 kts 186°
2026-04-29 10:08 26.64315 -97.36224 15483 ft 395 kts 186°
2026-04-29 10:08 26.61587 -97.36400 14966 ft 388 kts 186°
2026-04-29 10:08 26.58934 -97.36569 14464 ft 389 kts 186°
2026-04-29 10:09 26.56233 -97.36743 13946 ft 385 kts 186°
2026-04-29 10:09 26.53610 -97.36909 13428 ft 367 kts 186°
2026-04-29 10:09 26.51291 -97.37045 13003 ft 312 kts 187°
2026-04-29 10:09 26.49185 -97.37182 12702 ft 296 kts 188°
2026-04-29 10:10 26.47087 -97.37331 12333 ft 314 kts 187°
2026-04-29 10:10 26.44913 -97.37475 11870 ft 309 kts 187°
2026-04-29 10:10 26.43503 -97.37558 11604 ft 304 kts 187°
2026-04-29 10:10 26.41392 -97.37688 11208 ft 304 kts 187°
2026-04-29 10:11 26.39279 -97.37825 10811 ft 304 kts 187°
2026-04-29 10:11 26.37175 -97.37960 10399 ft 302 kts 187°
2026-04-29 10:11 26.35094 -97.38094 10033 ft 297 kts 187°
2026-04-29 10:11 26.33037 -97.38227 9650 ft 295 kts 186°
2026-04-29 10:12 26.31001 -97.38353 9243 ft 290 kts 186°
2026-04-29 10:12 26.28997 -97.38480 8847 ft 286 kts 186°
2026-04-29 10:12 26.27061 -97.38809 8493 ft 279 kts 197°
2026-04-29 10:12 26.25260 -97.39599 8107 ft 277 kts 209°
2026-04-29 10:13 26.23686 -97.40774 7751 ft 268 kts 221°
2026-04-29 10:13 26.22306 -97.42161 7420 ft 269 kts 223°
2026-04-29 10:13 26.20906 -97.43558 7056 ft 266 kts 222°
2026-04-29 10:13 26.19610 -97.44820 6786 ft 236 kts 222°
2026-04-29 10:14 26.18324 -97.46081 6481 ft 259 kts 222°
2026-04-29 10:14 26.16971 -97.47418 6082 ft 257 kts 221°
2026-04-29 10:14 26.15662 -97.48708 5744 ft 254 kts 221°
2026-04-29 10:14 26.14331 -97.50019 5405 ft 257 kts 221°
2026-04-29 10:15 26.12997 -97.51333 5050 ft 254 kts 220°
2026-04-29 10:15 26.11687 -97.52621 4712 ft 249 kts 220°
2026-04-29 10:15 26.10344 -97.53800 4371 ft 243 kts 212°
2026-04-29 10:15 26.08840 -97.54629 4048 ft 241 kts 201°
2026-04-29 10:16 26.07225 -97.55121 3730 ft 241 kts 191°
2026-04-29 10:16 26.05568 -97.55247 3413 ft 234 kts 180°
2026-04-29 10:16 26.03996 -97.55025 3111 ft 223 kts 171°
2026-04-29 10:16 26.02547 -97.54508 2815 ft 215 kts 161°
2026-04-29 10:17 26.01290 -97.53771 2545 ft 186 kts 154°
2026-04-29 10:17 26.00336 -97.52958 2332 ft 164 kts 146°
2026-04-29 10:17 25.99540 -97.52139 2109 ft 147 kts 144°
2026-04-29 10:17 25.98814 -97.51366 1898 ft 145 kts 144°
2026-04-29 10:18 25.98082 -97.50582 1713 ft 147 kts 143°
2026-04-29 10:18 25.97347 -97.49768 1527 ft 151 kts 142°
2026-04-29 10:18 25.96605 -97.48955 1350 ft 149 kts 142°
2026-04-29 10:18 25.95915 -97.48195 1181 ft 133 kts 142°
2026-04-29 10:19 25.95298 -97.47521 1027 ft 112 kts 142°
2026-04-29 10:19 25.94786 -97.46964 912 ft 96 kts 142°
2026-04-29 10:19 25.94329 -97.46464 798 ft 95 kts 140°
2026-04-29 10:19 25.93825 -97.45911 701 ft 99 kts 139°
2026-04-29 10:20 25.93345 -97.45389 588 ft 105 kts 141°
2026-04-29 10:20 25.92797 -97.44786 428 ft 107 kts 141°
2026-04-29 10:20 25.92278 -97.44209 300 ft 105 kts 139°
2026-04-29 10:20 25.91737 -97.43633 157 ft 110 kts 137°
2026-04-29 10:21 25.91203 -97.43040 48 ft 106 kts 138°
2026-04-29 10:21 25.90720 -97.42509 24 ft 86 kts 140°
2026-04-29 10:21 25.90368 -97.42134 24 ft 32 kts 134°
2026-04-29 10:21 25.90270 -97.42007 23 ft 12 kts 94°
2026-04-29 10:22 25.90345 -97.41952 24 ft 4 kts